This is the latest recevied weather packets stored in our database for station/object JO1YDG-13. If no packets are shown the sender has not sent any weather packets the latest 10 day(s).
| Time | Temp. | Humidity | Pressure | Rain* | Wind** | Luminosity | Snow |
|---|---|---|---|---|---|---|---|
| 1777324568 | 10.56° C | 85% | 986.6 hPa | 0 mm | - | - | - |
| 1777324268 | 10.56° C | 85% | 986.4 hPa | 0 mm | - | - | - |
| 1777323968 | 10° C | 87% | 986.4 hPa | 0 mm | - | - | - |
| 1777323668 | 10° C | 88% | 986.2 hPa | 0 mm | - | - | - |
| 1777323273 | 9.44° C | 90% | 986.2 hPa | 0 mm | - | - | - |
| 1777322973 | 8.89° C | 94% | 986.3 hPa | 0 mm | - | - | - |
| 1777322673 | 8.33° C | 94% | 986.3 hPa | 0 mm | - | - | - |
| 1777322373 | 8.33° C | 94% | 986 hPa | 0 mm | - | - | - |
| 1777322072 | 8.33° C | 95% | 985.9 hPa | 0 mm | - | - | - |
| 1777321772 | 8.33° C | 95% | 985.9 hPa | 0 mm | - | - | - |
| 1777321472 | 8.33° C | 95% | 985.9 hPa | 0 mm | - | - | - |
| 1777321172 | 8.33° C | 95% | 985.9 hPa | 0 mm | - | - | - |
| 1777320873 | 8.33° C | 95% | 985.9 hPa | 0 mm | - | - | - |
| 1777320572 | 8.33° C | 94% | 985.9 hPa | 0 mm | - | - | - |
| 1777320272 | 8.33° C | 93% | 985.9 hPa | 0 mm | - | - | - |
| 1777319972 | 8.33° C | 89% | 985.7 hPa | 0 mm | - | - | - |
| 1777319672 | 8.33° C | 88% | 985.7 hPa | 0 mm | - | - | - |
| 1777319372 | 8.33° C | 87% | 985.5 hPa | 0 mm | - | - | - |
| 1777319073 | 8.33° C | 87% | 985.5 hPa | 0 mm | - | - | - |
| 1777318773 | 8.33° C | 87% | 985.3 hPa | 0 mm | - | - | - |
| 1777318473 | 8.33° C | 87% | 985.3 hPa | 0 mm | - | - | - |
| 1777318173 | 8.33° C | 88% | 985.3 hPa | 0 mm | - | - | - |
| 1777317873 | 8.33° C | 88% | 985.3 hPa | 0 mm | - | - | - |
| 1777317573 | 8.33° C | 91% | 985.3 hPa | 0 mm | - | - | - |
| 1777317273 | 8.89° C | 91% | 985.2 hPa | 0 mm | - | - | - |
* Rain latest hour (hover to see other rain measurements)
** Current wind speed in m/s (hover to see current wind gust speed)